TimeCDT,TemperatureF,Dew PointF,Humidity,Sea Level PressureIn,VisibilityMPH,Wind Direction,Wind SpeedMPH,Gust SpeedMPH,PrecipitationIn,Events,Conditions,WindDirDegrees,DateUTC
12:53 AM,59.0,57.0,93,30.01,4.0,ENE,3.5,-,N/A,,Partly Cloudy,70,2012-10-26 05:53:00
1:53 AM,61.0,57.0,87,30.00,4.0,Calm,Calm,-,N/A,,Clear,0,2012-10-26 06:53:00
2:53 AM,62.1,57.0,84,30.00,4.0,North,5.8,-,N/A,,Haze,360,2012-10-26 07:53:00
4:53 AM,61.0,57.0,87,30.01,4.0,NE,3.5,-,N/A,,Clear,40,2012-10-26 09:53:00
7:13 AM,60.8,57.2,88,30.03,2.5,NE,4.6,-,N/A,,Mostly Cloudy,50,2012-10-26 12:13:00
8:53 AM,68.0,61.0,78,30.05,5.0,ENE,6.9,-,N/A,,Haze,60,2012-10-26 13:53:00
9:53 AM,71.1,62.1,73,30.05,8.0,ENE,4.6,-,N/A,,Partly Cloudy,60,2012-10-26 14:53:00
10:53 AM,75.9,62.1,62,30.04,9.0,ENE,6.9,-,N/A,,Clear,60,2012-10-26 15:53:00
11:53 AM,79.0,60.1,52,30.02,10.0,Calm,Calm,-,N/A,,Clear,0,2012-10-26 16:53:00
12:53 PM,80.1,57.9,47,29.98,10.0,East,4.6,-,N/A,,Clear,90,2012-10-26 17:53:00
1:53 PM,80.1,57.0,45,29.95,10.0,Calm,Calm,-,N/A,,Unknown,0,2012-10-26 18:53:00
2:53 PM,81.0,55.9,42,29.93,10.0,ESE,3.5,-,N/A,,Clear,110,2012-10-26 19:53:00
3:53 PM,81.0,53.1,38,29.91,10.0,Calm,Calm,-,N/A,,Clear,0,2012-10-26 20:53:00
4:53 PM,80.1,55.0,42,29.91,10.0,East,4.6,-,N/A,,Clear,90,2012-10-26 21:53:00
5:53 PM,71.1,59.0,66,29.92,10.0,Calm,Calm,-,N/A,,Clear,0,2012-10-26 22:53:00
6:53 PM,66.9,60.1,79,29.92,10.0,Calm,Calm,-,N/A,,Clear,0,2012-10-26 23:53:00
7:53 PM,62.1,57.9,86,29.93,9.0,Calm,Calm,-,N/A,,Clear,0,2012-10-27 00:53:00
8:53 PM,62.1,59.0,90,29.93,8.0,Calm,Calm,-,N/A,,Clear,0,2012-10-27 01:53:00
9:53 PM,60.1,57.9,93,29.94,8.0,Variable,3.5,-,N/A,,Clear,0,2012-10-27 02:53:00
10:53 PM,61.0,57.9,90,29.94,8.0,South,3.5,-,N/A,,Clear,170,2012-10-27 03:53:00
11:53 PM,63.0,57.9,84,29.93,8.0,East,4.6,-,N/A,,Clear,90,2012-10-27 04:53:00